Showing default

FLOCK 4BE 30, 60499

Orbit data source: Space-Track

FLOCK 4BE 30, 60499 is a payload satellite owned by Planet (US) in SSO that was launched on Fri, 16 Aug 2024 UTC via an FALCON 9 launch vehicle from the Air Force Western Test Range (AFWTR). Payloads include a variety of satellites, spacecraft, and rockets equipped with specific instruments for various scientific and technological missions. These include communications satellites like Starlink; space stations such as the ISS; scientific satellites like the Hubble; Earth observation satellites from companies like Planet Labs, Umbra, and HawkEye 360; GPS; miniature CubeSats for education and research; and military/defense satellites.

Loading next visibility...
FLOCK 4BE 30 details
Identifier
60499, 2024-149AH
Orbit
SSO
Last TLE update20 hours ago
Origin
Flag of USPlanet (US)
ManufacturerPlanet
MissionOperational spacecraft
Bus & MotorCUBESAT 3U, Unknown motor
Mass5.7 kg wet, 5.7 kg dry
Launch date (UTC)
2024-08-16 (4 months ago)
Launch vehicle
FALCON 9
Launch site
Air Force Western Test Range (AFWTR)
Object type
Payload
Rocket body
Debris
Shape & HBRUnknown
Radar Cross SectionMedium (>0.1 m² and <1 m²)

Expand to show TLE details & history

TLE from 20 hours ago
0 FLOCK 4BE 30
1 60499U 24149AH  24355.75423306  .00014681  00000-0  63252-3 0  9998
2 60499  97.4324  69.6172 0004743  55.7038 304.4647 15.22671448 18519
Epoch: 2024-12-20T18:06Z
Definitive object data (Epoch: 2024-12-20T18:06:05.736Z)
Latitude-0.00001°
Longitude68.27809°
Altitude499.035 km
Speed7.616 km/s
True Right ascension04h 38m 28s
True Declination0° 00' 00"
Sunlit
Object was in full shadow at TLE epoch
Visualization TLE readout
Latitude21.31414°
Longitude-108.01187°
Altitude501.373 km
Speed7.615 km/s
Apparent Right ascension19h 59m 05s
Apparent Declination-14° 52' 13"
Sunlit
Object is in daylight
Visualization observer readout
Local Sidereal Time12:45:16
Azimuth90.032° ESE
Elevation-23.537°
Doppler factor1
Orbital elements
Apogee altitude498.01 km
Perigee altitude491.49 km
Semi-major axis6,872.887 km
Eccentricity0.0004743
Inclination97.4324°
RAAN69.6172°
Arg. of periapsis55.7038°
True anomaly304.41987°
Mean anomaly304.4647°
Eccentric anomaly304.44229°
Mean motion3.80921 °/min
BSTAR0.00063252
Orbital period94.51 mins
Loading maneuver chart data...
Loading historical data...
Loading historical data...
Loading historical data...
Loading historical data...
Loading historical data...
Loading historical data...
Loading historical data...

FLOCK 4BE 30 Visibility forecast

Observer location: undefined°, undefined

Span
Click to sort rows by Start time (UTC) header in descending order
Start Az.
Max El. time (UTC)
Max El. Az.
Max El.
End time (UTC)
End Az.
6 mins2024-12-21 18:19:16.108Z357.777° N2024-12-21 18:22:16.108Z267.554° W37.387°2024-12-21 18:25:16.108Z210.049° SW
5 mins2024-12-22 04:56:16.108Z146.894° SSE2024-12-22 04:58:16.108Z103.887° ESE37.23°2024-12-22 05:01:16.108Z2.154° NNE
|